Vorticity
8 2 2 3 3 3 5 6 5 4 6 6 6 6 5 5 5 8 8 7 5 6 5 5 7 6 5 4 5 5 5 5 6 6 4 1 0 2 3 2 8 7 4
4 6 4 3 4 4 4 3 5 7 7 7 7 6 7 7 7 5 10 7 6 6 5 6 8 8 8 7 8 5 4 4 5 5 5 3 1 2 1 2 3 8 5
5 7 7 5 4 4 5 5 6 6 8 7 7 8 7 7 9 1 12 5 6 5 5 6 7 8 9 7 8 9 9 8 5 4 3 3 2 4 4 3 2 6 6
4 5 5 4 5 4 6 7 7 7 7 7 8 9 7 7 5 3 11 12 11 7 6 6 6 6 5 5 4 4 5 5 6 6 6 8 8 5 5 5 3 5 7
5 3 4 4 4 7 8 7 7 6 6 6 6 4 6 7 8 7 1 0 8 15 14 7 4 3 2 2 2 2 4 5 4 3 3 4 5 8 9 5 3 6 10
4 3 4 5 7 9 8 7 6 6 6 7 5 7 6 7 8 8 7 4 1 1 1 6 11 11 9 7 6 6 8 8 10 11 12 11 10 9 10 11 10 10 14
5 5 5 6 6 7 7 6 6 6 6 6 6 5 6 5 7 8 9 9 7 6 4 4 3 2 2 3 3 3 2 3 3 3 3 4 6 7 7 7 6 5 6
7 7 7 5 5 6 6 6 6 6 4 4 4 6 7 8 11 11 11 13 14 12 9 9 9 9 8 8 8 8 6 5 5 5 5 4 4 4 5 6 5 4 4
8 9 7 6 5 5 6 5 6 5 5 5 5 4 5 3 2 1 -3 -2 -1 2 6 8 8 7 9 11 11 11 12 13 12 12 11 9 7 8 8 7 6 6 7
8 6 3 3 4 8 8 7 7 7 7 3 4 5 3 3 3 3 0 1 -1 0 4 2 2 5 6 5 2 2 3 4 4 4 4 6 8 8 7 8 7 7 6
5 7 3 3 7 7 10 9 6 7 5 3 4 5 3 5 3 2 1 -0 -3 0 1 4 2 2 2 1 2 6 6 6 6 9 12 9 4 4 6 7 7 7 6
6 3 5 2 0 2 5 13 9 5 7 4 1 3 7 3 2 0 1 2 2 6 11 9 6 6 7 6 6 3 4 6 9 10 11 12 12 11 9 8 7 8 10
4 2 3 4 3 2 3 7 13 8 6 7 8 -1 4 5 2 3 2 3 6 5 3 9 14 8 21 7 5 7 7 7 8 9 10 11 12 13 14 14 13 14 12
4 4 3 5 4 3 3 10 9 18 6 9 6 8 2 4 4 3 2 4 2 5 8 13 17 21 11 15 13 11 9 7 7 7 9 8 8 7 7 7 7 7 7
8 8 7 4 3 3 2 6 7 10 9 7 13 9 2 5 2 3 2 3 5 5 14 10 5 2 3 3 5 1 4 6 8 6 8 9 9 6 6 5 5 4 4
7 7 9 9 6 4 4 4 10 6 7 9 10 10 8 6 4 4 8 4 4 14 10 5 2 1 7 4 2 4 3 0 4 8 8 8 8 7 6 5 5 5 7
6 8 9 7 7 7 6 3 11 7 8 6 8 10 9 9 6 5 4 9 3 12 6 2 2 1 2 3 1 1 4 6 5 11 11 10 8 7 7 7 8 7 7
5 8 10 6 6 6 8 6 10 9 6 6 7 7 8 9 7 5 7 1 7 12 4 0 1 5 2 2 8 10 10 10 12 14 11 9 7 7 6 6 6 6 6
3 4 12 4 4 8 8 6 8 14 6 5 6 6 7 6 4 3 7 2 6 13 8 2 3 2 8 8 9 14 21 19 11 8 6 6 6 6 6 6 5 5 5
7 5 8 10 5 11 7 4 7 13 8 7 4 5 5 3 7 4 2 14 11 6 4 2 5 8 6 9 16 12 3 2 6 6 6 6 5 3 3 5 5 4 6
9 8 6 9 4 10 9 3 6 14 9 4 3 5 4 5 4 5 13 8 5 2 2 5 7 5 7 13 11 6 4 4 7 6 4 3 4 3 4 4 5 5 3
4 7 5 11 4 3 8 5 5 16 13 1 3 4 4 3 4 3 3 4 2 1 4 8 4 4 9 12 7 7 4 6 4 5 6 4 4 7 5 4 4 6 9
4 4 6 7 10 2 3 9 5 11 9 1 2 3 2 2 3 3 2 4 2 1 7 6 4 7 11 9 7 5 4 5 5 4 3 6 5 2 7 8 10 12 13
8 2 8 4 12 9 4 7 5 6 10 7 4 3 1 2 2 4 2 4 1 5 8 6 8 11 10 6 6 3 4 4 3 7 6 2 5 8 8 11 11 9 8
12 5 9 6 2 9 8 3 6 6 6 7 6 4 2 2 3 5 3 3 4 10 6 8 11 9 4 3 3 3 4 2 3 8 4 11 2 12 15 13 11 7 6
12 5 8 6 7 4 10 10 6 9 4 4 5 4 3 5 5 5 4 4 8 7 8 10 7 6 4 2 5 3 3 2 4 11 11 6 6 3 6 5 7 5 4
Height
5849 5850 5849 5849 5849 5849 5850 5850 5849 5849 5848 5848 5847 5847 5846 5846 5846 5846 5847 5848 5848 5849 5849 5849 5849 5849 5849 5849 5849 5849 5849 5849 5849 5849 5849 5849 5849 5849 5849 5848 5848 5848 5847
5847 5847 5846 5846 5847 5847 5846 5846 5846 5846 5846 5846 5845 5844 5844 5844 5845 5845 5845 5846 5847 5847 5847 5847 5847 5847 5847 5847 5847 5847 5847 5847 5846 5846 5846 5846 5845 5845 5845 5845 5845 5845 5844
5842 5843 5843 5843 5843 5844 5844 5843 5843 5842 5843 5843 5843 5842 5841 5842 5842 5843 5843 5843 5844 5844 5844 5845 5845 5845 5844 5843 5844 5844 5844 5844 5843 5842 5842 5842 5841 5841 5841 5841 5840 5841 5840
5837 5838 5839 5839 5840 5840 5840 5840 5840 5840 5839 5840 5840 5840 5839 5839 5840 5841 5841 5841 5841 5841 5841 5841 5841 5841 5842 5841 5840 5840 5840 5840 5839 5838 5837 5837 5836 5836 5836 5836 5835 5835 5835
5834 5834 5834 5835 5836 5837 5837 5836 5837 5837 5837 5837 5837 5838 5837 5836 5837 5837 5839 5839 5838 5838 5837 5837 5838 5837 5837 5836 5836 5836 5835 5835 5834 5833 5832 5832 5831 5831 5831 5831 5830 5830 5829
5830 5831 5831 5831 5832 5833 5834 5833 5833 5834 5834 5835 5835 5835 5834 5833 5833 5834 5835 5835 5835 5834 5833 5833 5833 5833 5833 5831 5830 5830 5830 5829 5829 5828 5827 5826 5826 5825 5825 5824 5824 5824 5823
5827 5827 5827 5828 5829 5830 5830 5830 5830 5831 5832 5833 5834 5832 5832 5831 5831 5831 5831 5831 5831 5831 5831 5830 5830 5829 5829 5828 5827 5826 5826 5825 5824 5824 5822 5821 5821 5820 5819 5818 5818 5817 5817
5823 5825 5825 5825 5825 5826 5827 5827 5827 5828 5828 5829 5830 5830 5829 5829 5829 5829 5827 5828 5828 5828 5827 5826 5825 5825 5824 5823 5822 5821 5820 5820 5819 5818 5817 5816 5815 5814 5813 5812 5812 5811 5811
5820 5821 5821 5821 5821 5822 5823 5823 5824 5825 5825 5826 5826 5827 5826 5827 5826 5826 5825 5825 5825 5824 5824 5822 5821 5821 5820 5819 5817 5816 5815 5814 5813 5812 5811 5810 5809 5808 5807 5805 5805 5804 5804
5817 5818 5817 5818 5818 5818 5819 5820 5820 5821 5821 5822 5822 5822 5823 5824 5823 5823 5823 5822 5821 5820 5820 5818 5818 5817 5816 5815 5813 5811 5810 5808 5807 5806 5804 5803 5802 5801 5800 5799 5798 5796 5796
5813 5813 5814 5814 5814 5814 5814 5815 5816 5818 5818 5818 5819 5819 5820 5820 5820 5819 5819 5817 5817 5816 5815 5814 5814 5812 5811 5810 5808 5806 5804 5802 5800 5799 5797 5796 5794 5793 5792 5791 5790 5789 5788
5808 5808 5809 5810 5810 5810 5810 5810 5811 5813 5814 5814 5815 5815 5816 5816 5815 5814 5814 5813 5812 5811 5810 5808 5808 5806 5805 5803 5802 5800 5798 5796 5794 5792 5789 5787 5786 5785 5783 5782 5781 5780 5780
5801 5803 5803 5804 5805 5805 5805 5806 5806 5807 5808 5809 5810 5811 5811 5811 5811 5810 5809 5809 5808 5807 5804 5802 5801 5799 5798 5797 5796 5794 5793 5790 5787 5784 5782 5780 5778 5776 5775 5773 5773 5773 5771
5795 5798 5799 5799 5799 5800 5800 5800 5801 5801 5802 5803 5804 5805 5806 5807 5805 5805 5805 5804 5803 5801 5798 5797 5795 5793 5791 5791 5789 5787 5786 5783 5780 5777 5774 5772 5770 5768 5766 5765 5764 5763 5762
5791 5791 5792 5792 5793 5794 5795 5795 5795 5796 5797 5798 5798 5800 5800 5800 5800 5800 5799 5799 5797 5794 5793 5792 5790 5788 5786 5785 5783 5781 5779 5776 5773 5769 5767 5765 5763 5760 5759 5758 5756 5755 5753
5784 5785 5784 5786 5787 5788 5789 5790 5790 5790 5791 5792 5792 5794 5794 5794 5794 5794 5794 5793 5791 5789 5787 5788 5785 5783 5781 5779 5776 5774 5772 5769 5765 5763 5760 5758 5756 5754 5752 5750 5749 5746 5745
5777 5778 5780 5780 5781 5783 5783 5784 5784 5784 5785 5786 5787 5788 5788 5789 5789 5789 5788 5787 5786 5784 5782 5782 5779 5777 5775 5771 5768 5765 5762 5759 5756 5754 5752 5749 5748 5746 5744 5742 5740 5738 5736
5771 5771 5772 5775 5775 5776 5777 5778 5777 5777 5779 5780 5781 5782 5782 5783 5783 5783 5782 5780 5779 5778 5778 5775 5773 5771 5768 5764 5759 5757 5753 5750 5747 5745 5743 5741 5739 5737 5734 5732 5729 5727 5725
5764 5765 5766 5768 5769 5769 5771 5771 5771 5772 5773 5775 5776 5777 5777 5777 5777 5776 5775 5774 5773 5771 5771 5768 5765 5763 5760 5755 5752 5748 5745 5741 5738 5736 5734 5731 5729 5726 5724 5721 5718 5715 5712
5757 5758 5760 5761 5762 5763 5764 5765 5765 5766 5768 5769 5770 5771 5771 5771 5770 5769 5768 5767 5766 5765 5764 5760 5758 5755 5752 5747 5742 5739 5737 5734 5731 5728 5726 5722 5719 5715 5712 5708 5704 5701 5698
5750 5751 5752 5752 5755 5757 5757 5758 5759 5760 5762 5763 5764 5765 5765 5764 5763 5762 5761 5760 5759 5758 5755 5752 5749 5746 5743 5739 5736 5731 5729 5726 5723 5720 5716 5712 5706 5702 5697 5693 5689 5685 5681
5742 5744 5744 5745 5748 5749 5751 5752 5753 5754 5756 5757 5758 5758 5758 5757 5757 5756 5755 5754 5752 5749 5747 5744 5740 5736 5733 5730 5727 5725 5722 5717 5712 5708 5704 5700 5694 5689 5683 5678 5673 5668 5664
5733 5737 5738 5739 5740 5742 5744 5747 5748 5749 5750 5750 5751 5751 5751 5750 5749 5749 5747 5746 5743 5740 5738 5734 5730 5726 5722 5719 5717 5714 5711 5710 5706 5703 5694 5686 5680 5675 5669 5663 5657 5651 5645
5726 5728 5731 5733 5735 5736 5737 5740 5741 5742 5743 5743 5743 5744 5743 5743 5742 5741 5739 5737 5734 5731 5728 5724 5720 5716 5712 5709 5705 5701 5696 5692 5689 5689 5687 5679 5672 5665 5657 5649 5642 5635 5630
5718 5721 5723 5725 5728 5729 5730 5733 5735 5735 5736 5735 5735 5736 5736 5735 5735 5733 5731 5728 5725 5722 5718 5714 5710 5705 5702 5698 5693 5688 5683 5676 5669 5665 5665 5662 5656 5647 5641 5634 5627 5620 5613
5710 5713 5716 5718 5720 5722 5724 5726 5727 5728 5728 5728 5728 5728 5728 5728 5727 5724 5722 5719 5715 5712 5708 5703 5699 5694 5690 5685 5680 5674 5668 5663 5657 5651 5646 5643 5639 5635 5625 5618 5610 5602 5593